Westfield, MA

7:05 AM EST on November 24, 2017 (GMT -0500)
Barnes Municipal

Weather History for KBAF - February, 2013

Change the Weather History Date:

Saturday, February 9, 2013

  Actual Average Record
Temperature  
Mean Temperature 21 °F -  
Max Temperature 24 °F 34 °F 46 °F (2005)
Min Temperature 16 °F 16 °F -10 °F (1975)
Degree Days  
Heating Degree Days 44    
Moisture  
Dew Point 10 °F    
Average Humidity 64    
Maximum Humidity 93    
Minimum Humidity 34    
Precipitation  
Precipitation 0.17 in - - ()
Sea Level Pressure  
Sea Level Pressure 29.90 in    
Wind  
Wind Speed 19 mph (NNW)    
Max Wind Speed 34 mph    
Max Gust Speed 69 mph    
Visibility 4 miles    
Events Fog , Snow    
Averages and records for this station are not official NWS values.
T = Trace of Precipitation, MM = Missing Value Source: NWS Daily Summary

Daily Weather History Graph

Daily Weather History Graph

Search for Another Location

Airport or City:

Trip Planner

Search our weather history database for the weather conditions in past years. The results will help you decide how hot, cold, wet, or windy it might be!

Date:

Astronomy

Feb. 09, 2013 Rise Set
Actual Time 6:54 AM EST 5:16 PM EST
Civil Twilight 6:25 AM EST 5:45 PM EST
Nautical Twilight 5:52 AM EST 6:18 PM EST
Astronomical Twilight 5:19 AM EST 6:50 PM EST
Moon 6:04 AM EST (2/9) 4:56 PM EST (2/9)
Length of Visible Light 11h 19m
Length of Day
10h 21m
Waning Crescent, 0% of the Moon is Illuminated
Feb 9
Waning Crescent
Feb 10
New
Feb 17
First Quarter
Feb 25
Full
Mar 4
Last Quarter

Hourly Weather History & Observations

Time (EST) Temp. Windchill Dew Point Humidity Pressure Visibility Wind Dir Wind Speed Gust Speed Precip Events Conditions
12:41 AM 19.4 °F 3.2 °F 17.6 °F 93% 29.71 in 0.2 mi North 20.7 mph 69.0 mph 0.06 in Fog Light Freezing Fog
12:53 AM 19.9 °F 4.8 °F 17.1 °F 89% 29.74 in 0.2 mi North 18.4 mph 31.1 mph 0.07 in Fog Light Freezing Fog
1:05 AM 19.4 °F 3.6 °F 17.6 °F 93% 29.71 in 0.5 mi NNW 19.6 mph 61.0 mph 0.01 in Fog Light Freezing Fog
1:53 AM 21.0 °F 5.0 °F 17.1 °F 85% 29.74 in 0.5 mi North 21.9 mph 32.2 mph 0.02 in Fog Light Freezing Fog
2:29 AM 21.2 °F 7.8 °F 19.4 °F 93% 29.71 in 0.5 mi NNW 15.0 mph 24.2 mph 0.02 in Fog Light Freezing Fog
2:37 AM 21.2 °F 6.0 °F 19.4 °F 93% 29.71 in 0.2 mi NNW 19.6 mph 49.5 mph 0.02 in Fog Light Freezing Fog
2:44 AM 21.2 °F 7.8 °F 19.4 °F 93% 29.71 in 0.5 mi NNW 15.0 mph 49.5 mph 0.03 in Fog Light Freezing Fog
2:53 AM 21.9 °F 8.2 °F 19.0 °F 89% 29.73 in 0.5 mi NNW 16.1 mph 27.6 mph 0.04 in Fog Light Freezing Fog
3:34 AM 24.8 °F 12.4 °F 19.4 °F 80% 29.70 in 0.5 mi NNW 15.0 mph - 0.02 in Fog Light Freezing Fog
3:53 AM 24.1 °F 12.5 °F 21.0 °F 88% 29.73 in 0.8 mi NNW 12.7 mph 21.9 mph 0.03 in   Mist
4:05 AM 24.8 °F 12.9 °F 21.2 °F 86% 29.70 in 1.0 mi North 13.8 mph - N/A   Mist
4:16 AM 24.8 °F 12.9 °F 21.2 °F 86% 29.71 in 1.0 mi North 13.8 mph - N/A   Mist
4:53 AM 24.1 °F 12.5 °F 21.0 °F 88% 29.75 in 1.2 mi North 12.7 mph - 0.01 in   Overcast
5:20 AM 24.8 °F 10.7 °F 19.4 °F 80% 29.74 in 1.5 mi North 19.6 mph 25.3 mph 0.00 in Snow Light Snow
5:53 AM 23.0 °F 9.6 °F 17.1 °F 78% 29.77 in 1.5 mi NNW 16.1 mph - 0.00 in Snow Light Snow
6:46 AM 21.2 °F 9.5 °F 17.6 °F 86% 29.77 in 2.5 mi NNW 11.5 mph - 0.00 in Snow Light Snow
6:53 AM 21.9 °F 8.2 °F 16.0 °F 78% 29.80 in 2.5 mi NNW 16.1 mph 24.2 mph 0.00 in Snow Light Snow
7:05 AM 21.2 °F 7.8 °F 15.8 °F 80% 29.78 in 3.0 mi NNW 15.0 mph 24.2 mph 0.00 in Snow Light Snow
7:40 AM 21.2 °F 6.4 °F 12.2 °F 68% 29.80 in 9.0 mi NNW 18.4 mph 26.5 mph 0.00 in   Overcast
7:53 AM 21.9 °F 7.3 °F 12.9 °F 68% 29.83 in 5.0 mi NNW 18.4 mph 26.5 mph 0.00 in Snow Light Snow
8:19 AM 21.2 °F 4.9 °F 12.2 °F 68% 29.81 in 2.0 mi NNW 23.0 mph 35.7 mph 0.00 in Snow Light Snow
8:28 AM 21.2 °F 4.9 °F 10.4 °F 63% 29.82 in 3.0 mi NNW 23.0 mph 36.8 mph 0.00 in Snow Light Snow
8:53 AM 21.0 °F 5.0 °F 10.9 °F 65% 29.86 in 5.0 mi NNW 21.9 mph 29.9 mph 0.00 in Snow Light Snow
9:31 AM 19.4 °F 2.8 °F 10.4 °F 68% 29.84 in 3.0 mi NNW 21.9 mph 33.4 mph 0.00 in Snow Light Snow
9:53 AM 19.9 °F 4.8 °F 9.0 °F 62% 29.88 in 7.0 mi NNW 18.4 mph 28.8 mph 0.00 in Snow Light Snow
10:53 AM 19.9 °F 4.3 °F 9.0 °F 62% 29.91 in 9.0 mi NNW 19.6 mph 31.1 mph 0.00 in   Overcast
11:53 AM 21.0 °F 5.0 °F 10.0 °F 63% 29.93 in 2.5 mi NNW 21.9 mph 41.4 mph 0.00 in Snow Light Snow
12:02 PM 21.2 °F 5.6 °F 8.6 °F 58% 29.90 in 4.0 mi NNW 20.7 mph 36.8 mph 0.00 in Snow Light Snow
12:16 PM 21.2 °F 3.9 °F 10.4 °F 63% 29.90 in 2.0 mi NNW 26.5 mph 36.8 mph 0.00 in Snow Light Snow
12:39 PM 23.0 °F 8.0 °F 8.6 °F 54% 29.91 in 4.0 mi NNW 20.7 mph 38.0 mph 0.00 in Snow Light Snow
12:53 PM 24.1 °F 9.4 °F 8.1 °F 51% 29.95 in 5.0 mi NNW 20.7 mph 34.5 mph 0.00 in   Mostly Cloudy
1:44 PM 24.8 °F 8.1 °F 6.8 °F 46% 29.93 in 1.8 mi NNW 28.8 mph 42.6 mph 0.00 in Snow Blowing Snow
1:53 PM 24.1 °F 5.9 °F 6.1 °F 46% 29.96 in 2.5 mi NNW 34.5 mph 40.3 mph 0.00 in Snow Blowing Snow
2:09 PM 23.0 °F 6.3 °F 5.0 °F 46% 29.95 in 4.0 mi NNW 26.5 mph 34.5 mph N/A Snow Blowing Snow
2:33 PM 23.0 °F 5.7 °F 6.8 °F 50% 29.97 in 2.0 mi NNW 28.8 mph 42.6 mph 0.00 in Snow Light Snow
2:42 PM 23.0 °F 6.9 °F 5.0 °F 46% 29.97 in 1.8 mi NNW 24.2 mph 44.9 mph 0.00 in Snow Blowing Snow
2:47 PM 24.8 °F 9.3 °F 5.0 °F 43% 29.98 in 3.0 mi NNW 24.2 mph 44.9 mph 0.00 in Snow Blowing Snow
2:53 PM 24.1 °F 8.0 °F 3.9 °F 42% 30.01 in 6.0 mi NNW 25.3 mph 38.0 mph 0.00 in Snow Blowing Snow
3:31 PM 24.8 °F 10.7 °F 5.0 °F 43% 30.01 in 2.5 mi NNW 19.6 mph 41.4 mph 0.00 in   Partly Cloudy
3:38 PM 24.8 °F 10.3 °F 3.2 °F 40% 30.00 in 10.0 mi NNW 20.7 mph 28.8 mph 0.00 in   Clear
3:53 PM 24.1 °F 8.0 °F 3.0 °F 40% 30.04 in 8.0 mi NNW 25.3 mph 34.5 mph 0.00 in   Clear
4:53 PM 23.0 °F 10.1 °F 1.0 °F 39% 30.09 in 10.0 mi NNW 15.0 mph 24.2 mph N/A   Clear
5:53 PM 21.9 °F 8.2 °F -2.9 °F 34% 30.14 in 10.0 mi NNW 16.1 mph 26.5 mph N/A   Clear
6:53 PM 21.0 °F 7.1 °F 1.0 °F 42% 30.17 in 10.0 mi NNW 16.1 mph 25.3 mph N/A   Clear
7:53 PM 19.9 °F 7.3 °F -0.0 °F 42% 30.19 in 10.0 mi NNW 12.7 mph 23.0 mph N/A   Clear
8:53 PM 19.9 °F 3.5 °F -2.0 °F 38% 30.22 in 10.0 mi NNW 21.9 mph 26.5 mph N/A   Clear
9:53 PM 18.0 °F 6.9 °F -2.9 °F 40% 30.26 in 10.0 mi North 9.2 mph - N/A   Clear
10:53 PM 18.0 °F 3.6 °F -2.9 °F 40% 30.27 in 10.0 mi NNW 15.0 mph 23.0 mph N/A   Clear
11:53 PM 16.0 °F 5.3 °F -5.1 °F 39% 30.29 in 10.0 mi NNW 8.1 mph - N/A   Clear